Flag for Germany Weather past 2 weeks in Varel, Lower Saxony, Germany

Now
39 °F

Passing clouds.


Feels Like: 32 °F
Forecast: 38 / 42 °F
Wind: 13 mph from Northwest

Location: Wittmundhaven

Current Time: Jan 27, 2015 at 12:39:33 AM

Latest Report: Jan 26, 2015 at 11:20 PM


Visibility: N/A

Pressure: 30.01 "Hg

Humidity: 87%

Dew point: 36 °F

Location of VarelLocation

Historic Weather in Varel — Graph

°F

Varel temperature yesterday

Maximum temperature yesterday: 43 °F (at 4:20 PM)
Minimum temperature yesterday: 36 °F (at 12:20 AM)
Average temperature yesterday: 38 °F

Past Weeks' High & Low Weather Summary

 TemperatureHumidityPressure
High48 °F (Jan 12, 8:20 PM)100% (Jan 13, 3:20 AM)30.33 "Hg (Jan 13, 3:20 AM)
Low19 °F (Jan 23, 5:20 AM)70% (Jan 17, 3:20 PM)29.27 "Hg (Jan 15, 2:20 PM)
Average36 °F91%29.87 "Hg
* Reported Jan 11 11:20 PM — Jan 26 11:20 PM, Varel, Weather by CustomWeather, © 2014

Note: Actual official high and low records may vary slightly from our data, if they occured in-between our weather recording intervals... More about our weather records

Advertising

Varel weather history for previous 24 hours

 ConditionsComfort  
Time TempWeatherWind HumidityBarometerVisibility
11:20 PM
Jan 26
39 °FPassing clouds.13 mph87%30.01 "HgN/A
10:20 PM39 °FPassing clouds.16 mph87%29.98 "HgN/A
9:20 PM37 °FPassing clouds.9 mph93%29.98 "HgN/A
8:20 PM39 °FPassing clouds.18 mph87%29.98 "HgN/A
7:20 PM39 °FPassing clouds.13 mph87%29.95 "HgN/A
6:20 PM41 °FPassing clouds.12 mph93%29.95 "HgN/A
5:46 PM41 °FPartly cloudy.16 mph93%29.92 "HgN/A
5:20 PM43 °FPartly cloudy.16 mph87%29.92 "HgN/A
4:20 PM43 °FPartly sunny.16 mph100%29.92 "Hg6 mi
3:20 PM41 °FDrizzle. Fog.9 mph100%29.89 "Hg2 mi
2:20 PM41 °FDrizzle. Fog.12 mph93%29.92 "Hg1 mi
1:20 PM39 °FDrizzle. Fog.14 mph100%29.92 "Hg1 mi
12:20 PM39 °FDrizzle. Fog.14 mph93%29.95 "Hg1 mi
11:20 AM37 °FDrizzle. Fog.14 mph100%29.98 "Hg1 mi
10:20 AM37 °FDrizzle. Fog.13 mph100%30.01 "Hg1 mi
9:20 AM37 °FDrizzle. Fog.13 mph100%30.04 "Hg1 mi
8:20 AM37 °FDrizzle. Fog.13 mph100%30.07 "Hg1 mi
7:20 AM37 °FDrizzle. Fog.13 mph93%30.07 "Hg1 mi
6:20 AM36 °FDrizzle. Fog.12 mph100%30.09 "Hg1 mi
5:20 AM36 °FDrizzle. Fog.12 mph100%30.09 "Hg1 mi
5:01 AM36 °FDrizzle. Fog.12 mph100%30.12 "Hg1 mi
4:20 AM36 °FChilly.12 mph100%30.12 "Hg1 mi
3:20 AM36 °FChilly.10 mph100%30.15 "Hg1 mi
2:20 AM36 °FChilly.9 mph100%30.18 "Hg1 mi
1:20 AM36 °FChilly.7 mph100%30.21 "Hg1 mi
12:20 AM36 °FChilly.9 mph100%30.21 "Hg2 mi
Weather by CustomWeather, © 2014

See weather overviewHow to use our weather pages